| time (UTC) | temp F | wind direction | speed knots | gust knots | rain 1hr in | rain 24hr in | rain mn in | humidity % | barometer mb |
| 20260506204637 | 65 | 137 | 0.0 | 1.7 | 0.00 | 0.00 | 0.00 | 82 | 1013.4 |
| 20260506204133 | 64 | 116 | 1.7 | 2.6 | 0.00 | 0.00 | 0.00 | 82 | 1013.5 |
| 20260506203631 | 66 | 44 | 0.0 | 1.7 | 0.00 | 0.00 | 0.00 | 81 | 1013.6 |
| 20260506203128 | 66 | 124 | 0.9 | 2.6 | 0.00 | 0.00 | 0.00 | 80 | 1013.5 |
| 20260506202626 | 67 | 142 | 1.7 | 2.6 | 0.00 | 0.00 | 0.00 | 79 | 1013.4 |
| 20260506202122 | 67 | 238 | 0.0 | 1.7 | 0.00 | 0.00 | 0.00 | 79 | 1013.3 |
| 20260506201619 | 68 | 178 | 0.9 | 1.7 | 0.00 | 0.00 | 0.00 | 80 | 1013.3 |
| 20260506201115 | 68 | 18 | 0.9 | 1.7 | 0.00 | 0.00 | 0.00 | 80 | 1013.1 |
| 20260506200612 | 67 | 86 | 6.1 | 12.2 | 0.00 | 0.00 | 0.00 | 80 | 1013.1 |
| 20260506200109 | 68 | 84 | 2.6 | 4.3 | 0.00 | 0.00 | 0.00 | 79 | 1013.2 |
| 20260506195605 | 69 | 357 | 1.7 | 1.7 | 0.00 | 0.00 | 0.00 | 78 | 1013.1 |
| 20260506195102 | 69 | 79 | 7.0 | 12.2 | 0.00 | 0.00 | 0.00 | 78 | 1012.9 |
| 20260506194600 | 70 | 141 | 3.5 | 6.1 | 0.00 | 0.00 | 0.00 | 78 | 1012.7 |
| 20260506194055 | 70 | 127 | 2.6 | 4.3 | 0.00 | 0.00 | 0.00 | 79 | 1012.9 |
| 20260506193553 | 69 | 136 | 0.0 | 0.0 | 0.00 | 0.00 | 0.00 | 81 | 1012.8 |
| 20260506193050 | 68 | 74 | 0.9 | 1.7 | 0.00 | 0.00 | 0.00 | 82 | 1012.8 |
| 20260506192547 | 69 | 329 | 0.9 | 2.6 | 0.00 | 0.00 | 0.00 | 81 | 1012.8 |
| 20260506192043 | 70 | 159 | 1.7 | 2.6 | 0.00 | 0.00 | 0.00 | 81 | 1013.1 |
| 20260506191540 | 71 | 303 | 1.7 | 2.6 | 0.00 | 0.00 | 0.00 | 80 | 1012.9 |
| 20260506191036 | 71 | 142 | 0.0 | 1.7 | 0.00 | 0.00 | 0.00 | 79 | 1012.9 |
| 20260506190533 | 71 | 141 | 0.0 | 0.0 | 0.00 | 0.00 | 0.00 | 80 | 1012.9 |
| 20260506190030 | 72 | 156 | 0.9 | 1.7 | 0.00 | 0.00 | 0.00 | 79 | 1013.1 |
| 20260506185527 | 74 | 95 | 1.7 | 1.7 | 0.00 | 0.00 | 0.00 | 78 | 1013.0 |
| 20260506185024 | 75 | 138 | 0.0 | 0.0 | 0.00 | 0.00 | 0.00 | 78 | 1013.0 |
| 20260506184521 | 76 | 130 | 0.0 | 0.0 | 0.00 | 0.00 | 0.00 | 78 | 1012.9 |
| 20260506184018 | 75 | 142 | 0.0 | 0.0 | 0.00 | 0.00 | 0.00 | 78 | 1012.7 |
| 20260506183514 | 76 | 83 | 0.0 | 0.0 | 0.00 | 0.00 | 0.00 | 76 | 1012.7 |
| 20260506183011 | 76 | 122 | 0.0 | 0.0 | 0.00 | 0.00 | 0.00 | 77 | 1012.6 |
| 20260506182509 | 76 | 115 | 0.0 | 1.7 | 0.00 | 0.00 | 0.00 | 78 | 1012.3 |
| 20260506182005 | 75 | 112 | 0.0 | 0.0 | 0.00 | 0.00 | 0.00 | 77 | 1012.5 |
| 20260506181503 | 75 | 131 | 1.7 | 2.6 | 0.00 | 0.00 | 0.00 | 76 | 1012.8 |
| 20260506180959 | 75 | 140 | 0.0 | 0.0 | 0.00 | 0.00 | 0.00 | 80 | 1013.0 |
| 20260506180455 | 73 | 143 | 0.0 | 0.0 | 0.00 | 0.00 | 0.00 | 82 | 1012.7 |
| 20260506175947 | 72 | 128 | 2.6 | 4.3 | 0.00 | 0.00 | 0.00 | 82 | 1012.7 |
| 20260506175444 | 71 | 90 | 1.7 | 2.6 | 0.00 | 0.00 | 0.00 | 82 | 1012.7 |
| 20260506174940 | 72 | 131 | 2.6 | 4.3 | 0.00 | 0.00 | 0.00 | 82 | 1012.3 |
| 20260506174438 | 71 | 109 | 0.0 | 1.7 | 0.00 | 0.00 | 0.00 | 83 | 1012.2 |
| 20260506173935 | 70 | 139 | 0.0 | 0.0 | 0.00 | 0.00 | 0.00 | 86 | 1012.4 |
| 20260506173432 | 70 | 130 | 0.9 | 1.7 | 0.00 | 0.00 | 0.00 | 84 | 1012.5 |
| 20260506172929 | 70 | 122 | 1.7 | 2.6 | 0.00 | 0.00 | 0.00 | 84 | 1012.3 |
| 20260506172426 | 69 | 52 | 1.7 | 2.6 | 0.00 | 0.00 | 0.00 | 87 | 1012.6 |
| 20260506171923 | 68 | 103 | 0.0 | 0.0 | 0.00 | 0.00 | 0.00 | 87 | 1012.5 |
| 20260506171420 | 68 | 36 | 2.6 | 4.3 | 0.00 | 0.00 | 0.00 | 88 | 1012.6 |
| 20260506170918 | 68 | 113 | 2.6 | 4.3 | 0.00 | 0.00 | 0.00 | 86 | 1012.4 |
| 20260506170413 | 67 | 167 | 3.5 | 6.1 | 0.00 | 0.00 | 0.00 | 88 | 1012.7 |
| 20260506165907 | 66 | 108 | 5.2 | 7.8 | 0.00 | 0.00 | 0.00 | 89 | 1012.6 |
| 20260506165405 | 66 | 34 | 3.5 | 8.7 | 0.00 | 0.00 | 0.00 | 88 | 1012.5 |
| 20260506164901 | 66 | 25 | 3.5 | 7.8 | 0.00 | 0.00 | 0.00 | 88 | 1012.5 |
| 20260506164357 | 66 | 95 | 2.6 | 4.3 | 0.00 | 0.00 | 0.00 | 88 | 1012.6 |
| 20260506163855 | 66 | 16 | 7.8 | 10.4 | 0.00 | 0.00 | 0.00 | 87 | 1013.1 |
| 20260506163349 | 65 | 96 | 6.1 | 8.7 | 0.00 | 0.00 | 0.00 | 90 | 1013.2 |
| 20260506162845 | 66 | 41 | 4.3 | 6.1 | 0.00 | 0.00 | 0.00 | 89 | 1013.5 |
| 20260506162343 | 64 | 120 | 4.3 | 4.3 | 0.00 | 0.00 | 0.00 | 91 | 1013.6 |
| 20260506161835 | 64 | 139 | 0.0 | 0.0 | 0.00 | 0.00 | 0.00 | 95 | 1013.7 |
| 20260506161332 | 62 | 11 | 7.8 | 10.4 | 0.00 | 0.00 | 0.00 | 96 | 1013.6 |
| 20260506160829 | 62 | 165 | 3.5 | 6.1 | 0.00 | 0.00 | 0.00 | 98 | 1014.3 |
| 20260506160325 | 62 | 111 | 7.0 | 8.7 | 0.00 | 0.00 | 0.00 | 97 | 1014.4 |
| 20260506155824 | 62 | 136 | 0.9 | 2.6 | 0.00 | 0.00 | 0.00 | 98 | 1014.6 |
| 20260506155320 | 62 | 138 | 0.9 | 2.6 | 0.00 | 0.00 | 0.00 | 97 | 1013.9 |
| 20260506153433 | 65 | 128 | 0.9 | 2.6 | 0.00 | 0.00 | 0.00 | 95 | 1013.9 |
| 20260506152931 | 65 | 119 | 0.0 | 0.0 | 0.00 | 0.00 | 0.00 | 94 | 1013.4 |
| 20260506152427 | 66 | 108 | 0.0 | 1.7 | 0.00 | 0.00 | 0.00 | 94 | 1013.5 |
| 20260506151926 | 67 | 99 | 1.7 | 2.6 | 0.00 | 0.00 | 0.00 | 93 | 1013.3 |
| 20260506151423 | 67 | 136 | 1.7 | 2.6 | 0.00 | 0.00 | 0.00 | 93 | 1013.1 |
| 20260506150921 | 67 | 135 | 1.7 | 2.6 | 0.00 | 0.00 | 0.00 | 93 | 1012.8 |
| 20260506150416 | 68 | 188 | 4.3 | 14.8 | 0.00 | 0.00 | 0.00 | 92 | 1013.0 |
| 20260506145914 | 69 | 183 | 4.3 | 4.3 | 0.00 | 0.00 | 0.00 | 92 | 1012.7 |
| 20260506145409 | 70 | 151 | 0.0 | 0.0 | 0.00 | 0.00 | 0.00 | 90 | 1012.4 |
| 20260506144907 | 75 | 97 | 2.6 | 6.1 | 0.00 | 0.00 | 0.00 | 87 | 1012.2 |
| 20260506144403 | 78 | 113 | 0.0 | 0.0 | 0.00 | 0.00 | 0.00 | 89 | 1011.7 |
| 20260506143902 | 78 | 55 | 0.0 | 1.7 | 0.00 | 0.00 | 0.00 | 89 | 1011.4 |
| 20260506143358 | 78 | 139 | 0.0 | 0.0 | 0.00 | 0.00 | 0.00 | 88 | 1011.1 |
| 20260506142857 | 79 | 140 | 0.0 | 1.7 | 0.00 | 0.00 | 0.00 | 87 | 1011.2 |
| 20260506142355 | 80 | 147 | 0.0 | 0.0 | 0.00 | 0.00 | 0.00 | 88 | 1010.9 |
| 20260506141853 | 81 | 110 | 0.0 | 0.0 | 0.00 | 0.00 | 0.00 | 86 | 1010.8 |
| 20260506141350 | 80 | 124 | 0.9 | 1.7 | 0.00 | 0.00 | 0.00 | 86 | 1010.7 |
| 20260506140848 | 79 | 41 | 0.9 | 2.6 | 0.00 | 0.00 | 0.00 | 88 | 1010.7 |
| 20260506140345 | 78 | 145 | 0.0 | 1.7 | 0.00 | 0.00 | 0.00 | 90 | 1010.7 |
| 20260506135842 | 77 | 248 | 1.7 | 2.6 | 0.00 | 0.00 | 0.00 | 92 | 1011.1 |
| 20260506135338 | 76 | 151 | 1.7 | 2.6 | 0.00 | 0.00 | 0.00 | 93 | 1011.0 |
| 20260506134835 | 76 | 141 | 1.7 | 1.7 | 0.00 | 0.00 | 0.00 | 94 | 1011.0 |
| 20260506134331 | 76 | 198 | 1.7 | 2.6 | 0.00 | 0.00 | 0.00 | 94 | 1010.5 |
| 20260506133829 | 75 | 139 | 0.9 | 1.7 | 0.00 | 0.00 | 0.00 | 94 | 1010.6 |
| 20260506133325 | 76 | 150 | 2.6 | 4.3 | 0.00 | 0.00 | 0.00 | 94 | 1010.6 |
| 20260506132822 | 75 | 181 | 0.9 | 1.7 | 0.00 | 0.00 | 0.00 | 95 | 1010.5 |
| 20260506132319 | 75 | 167 | 0.0 | 0.0 | 0.00 | 0.00 | 0.00 | 95 | 1010.5 |
| 20260506131817 | 75 | 149 | 0.0 | 1.7 | 0.00 | 0.00 | 0.00 | 95 | 1010.5 |
| 20260506131313 | 75 | 190 | 0.9 | 1.7 | 0.00 | 0.00 | 0.00 | 95 | 1010.5 |
| 20260506130810 | 75 | 155 | 0.9 | 1.7 | 0.00 | 0.00 | 0.00 | 95 | 1010.3 |
| 20260506130307 | 75 | 268 | 0.0 | 0.0 | 0.00 | 0.00 | 0.00 | 96 | 1010.3 |
| 20260506125805 | 75 | 146 | 0.0 | 0.0 | 0.00 | 0.00 | 0.00 | 96 | 1010.2 |
| 20260506125305 | 74 | 140 | 0.0 | 1.7 | 0.00 | 0.00 | 0.00 | 97 | 1010.2 |
| 20260506124801 | 74 | 143 | 0.0 | 0.0 | 0.00 | 0.00 | 0.00 | 97 | 1010.2 |
| 20260506124258 | 74 | 132 | 0.9 | 1.7 | 0.00 | 0.00 | 0.00 | 98 | 1009.9 |
| 20260506123755 | 74 | 142 | 0.0 | 0.0 | 0.00 | 0.00 | 0.00 | 98 | 1010.1 |
| 20260506123254 | 74 | 136 | 0.0 | 0.0 | 0.00 | 0.00 | 0.00 | 98 | 1009.9 |
| 20260506122750 | 74 | 139 | 0.0 | 1.7 | 0.00 | 0.00 | 0.00 | 98 | 1009.7 |
| 20260506122247 | 74 | 163 | 0.0 | 0.0 | 0.00 | 0.00 | 0.00 | 98 | 1009.9 |
| 20260506121746 | 74 | 137 | 0.0 | 0.0 | 0.00 | 0.00 | 0.00 | 98 | 1009.9 |
| 20260506121242 | 74 | 143 | 0.0 | 0.0 | 0.00 | 0.00 | 0.00 | 98 | 1010.1 |
| 20260506120739 | 74 | 150 | 0.0 | 1.7 | 0.00 | 0.00 | 0.00 | 98 | 1010.0 |
| 20260506120237 | 74 | 157 | 0.0 | 0.0 | 0.00 | 0.00 | 0.00 | 98 | 1010.1 |
| 20260506115734 | 74 | 138 | 0.0 | 0.0 | 0.00 | 0.00 | 0.00 | 98 | 1010.0 |
| 20260506115233 | 74 | 138 | 0.0 | 0.0 | 0.00 | 0.00 | 0.00 | 98 | 1010.0 |
| 20260506114730 | 74 | 140 | 0.0 | 0.0 | 0.00 | 0.00 | 0.00 | 98 | 1009.5 |
| 20260506114227 | 74 | 145 | 0.0 | 0.0 | 0.00 | 0.00 | 0.00 | 98 | 1010.0 |
| 20260506113726 | 74 | 144 | 0.0 | 0.0 | 0.00 | 0.00 | 0.00 | 97 | 1009.9 |
| 20260506113223 | 74 | 153 | 0.0 | 0.0 | 0.00 | 0.00 | 0.00 | 97 | 1009.8 |
| 20260506112719 | 74 | 143 | 0.0 | 0.0 | 0.00 | 0.00 | 0.00 | 97 | 1010.0 |
| 20260506112217 | 74 | 142 | 0.0 | 0.0 | 0.00 | 0.00 | 0.00 | 97 | 1010.0 |
| 20260506111714 | 74 | 146 | 0.0 | 0.0 | 0.00 | 0.00 | 0.00 | 97 | 1010.0 |
| 20260506111213 | 74 | 137 | 0.0 | 0.0 | 0.00 | 0.00 | 0.00 | 97 | 1010.0 |
| 20260506110709 | 74 | 149 | 0.0 | 0.0 | 0.00 | 0.00 | 0.00 | 97 | 1009.8 |
| 20260506110207 | 74 | 143 | 0.0 | 0.0 | 0.00 | 0.00 | 0.00 | 97 | 1010.0 |
| 20260506105703 | 74 | 143 | 0.0 | 0.0 | 0.00 | 0.00 | 0.00 | 97 | 1009.9 |
| 20260506105200 | 74 | 150 | 0.0 | 0.0 | 0.00 | 0.00 | 0.00 | 97 | 1009.9 |
| 20260506104658 | 75 | 153 | 0.0 | 0.0 | 0.00 | 0.00 | 0.00 | 96 | 1010.0 |
| 20260506104155 | 75 | 141 | 0.0 | 0.0 | 0.00 | 0.00 | 0.00 | 96 | 1009.9 |
| 20260506103652 | 75 | 152 | 0.0 | 0.0 | 0.00 | 0.00 | 0.00 | 96 | 1009.9 |
| 20260506103149 | 75 | 134 | 0.0 | 0.0 | 0.00 | 0.00 | 0.00 | 96 | 1009.8 |
| 20260506102647 | 75 | 154 | 0.0 | 0.0 | 0.00 | 0.00 | 0.00 | 96 | 1009.6 |
| 20260506102144 | 75 | 165 | 0.0 | 1.7 | 0.00 | 0.00 | 0.00 | 96 | 1009.9 |
| 20260506101641 | 75 | 140 | 1.7 | 2.6 | 0.00 | 0.00 | 0.00 | 96 | 1009.8 |
| 20260506101138 | 75 | 164 | 0.9 | 1.7 | 0.00 | 0.00 | 0.00 | 96 | 1009.7 |
| 20260506100637 | 75 | 175 | 0.9 | 2.6 | 0.00 | 0.00 | 0.00 | 96 | 1009.5 |
| 20260506100134 | 75 | 150 | 0.0 | 0.0 | 0.00 | 0.00 | 0.00 | 96 | 1009.5 |
| 20260506095633 | 75 | 131 | 0.0 | 0.0 | 0.00 | 0.00 | 0.00 | 96 | 1009.5 |
| 20260506095129 | 75 | 169 | 0.0 | 0.0 | 0.00 | 0.00 | 0.00 | 96 | 1009.4 |
| 20260506094626 | 75 | 129 | 0.0 | 0.0 | 0.00 | 0.00 | 0.00 | 96 | 1009.2 |
| 20260506094124 | 75 | 189 | 0.0 | 0.0 | 0.00 | 0.00 | 0.00 | 95 | 1009.3 |
| 20260506093622 | 75 | 197 | 2.6 | 4.3 | 0.00 | 0.00 | 0.00 | 95 | 1009.0 |
| 20260506093119 | 75 | 112 | 4.3 | 6.1 | 0.00 | 0.00 | 0.00 | 95 | 1009.0 |
| 20260506092617 | 75 | 142 | 0.0 | 0.0 | 0.00 | 0.00 | 0.00 | 95 | 1008.8 |
| 20260506092114 | 75 | 133 | 0.0 | 0.0 | 0.00 | 0.00 | 0.00 | 95 | 1008.9 |
| 20260506091612 | 75 | 145 | 0.0 | 0.0 | 0.00 | 0.00 | 0.00 | 95 | 1009.0 |
| 20260506091109 | 75 | 202 | 0.0 | 1.7 | 0.00 | 0.00 | 0.00 | 95 | 1008.8 |
| 20260506090607 | 75 | 148 | 2.6 | 4.3 | 0.00 | 0.00 | 0.00 | 95 | 1008.9 |
| 20260506085600 | 75 | 165 | 0.9 | 2.6 | 0.00 | 0.00 | 0.00 | 94 | 1008.4 |
| 20260506085056 | 75 | 171 | 0.0 | 0.0 | 0.00 | 0.00 | 0.00 | 94 | 1008.6 |
| 20260506084553 | 75 | 147 | 0.9 | 1.7 | 0.00 | 0.00 | 0.00 | 94 | 1008.7 |
| 20260506084050 | 75 | 113 | 0.9 | 1.7 | 0.00 | 0.00 | 0.00 | 94 | 1008.7 |
| 20260506083547 | 75 | 159 | 0.0 | 0.0 | 0.00 | 0.00 | 0.00 | 94 | 1008.8 |
| 20260506083044 | 75 | 177 | 4.3 | 6.1 | 0.00 | 0.00 | 0.00 | 94 | 1008.7 |
| 20260506082540 | 75 | 155 | 1.7 | 2.6 | 0.00 | 0.00 | 0.00 | 94 | 1008.4 |
| 20260506082036 | 75 | 144 | 0.0 | 0.0 | 0.00 | 0.00 | 0.00 | 94 | 1008.6 |
| 20260506081535 | 75 | 178 | 2.6 | 2.6 | 0.00 | 0.00 | 0.00 | 94 | 1008.7 |
| 20260506081032 | 75 | 140 | 2.6 | 4.3 | 0.00 | 0.00 | 0.00 | 94 | 1008.6 |
| 20260506080530 | 75 | 233 | 1.7 | 2.6 | 0.00 | 0.00 | 0.00 | 94 | 1008.6 |
| 20260506073513 | 75 | 174 | 1.7 | 2.6 | 0.00 | 0.00 | 0.00 | 94 | 1009.0 |
| 20260506073010 | 75 | 183 | 2.6 | 7.8 | 0.00 | 0.00 | 0.00 | 94 | 1009.0 |
| 20260506072507 | 75 | 177 | 2.6 | 4.3 | 0.00 | 0.00 | 0.00 | 94 | 1009.0 |
| 20260506072005 | 75 | 99 | 2.6 | 2.6 | 0.00 | 0.00 | 0.00 | 94 | 1009.2 |
| 20260506071503 | 75 | 34 | 2.6 | 2.6 | 0.00 | 0.00 | 0.00 | 95 | 1009.3 |
| 20260506070959 | 75 | 172 | 3.5 | 4.3 | 0.00 | 0.00 | 0.00 | 95 | 1009.3 |
| 20260506070456 | 75 | 200 | 4.3 | 6.1 | 0.00 | 0.00 | 0.00 | 94 | 1009.1 |
| 20260506062434 | 75 | 179 | 3.5 | 6.1 | 0.00 | 0.00 | 0.00 | 94 | 1009.0 |
| 20260506061930 | 75 | 175 | 3.5 | 4.3 | 0.00 | 0.00 | 0.00 | 94 | 1008.9 |
| 20260506061426 | 75 | 183 | 2.6 | 4.3 | 0.00 | 0.00 | 0.00 | 94 | 1009.0 |
| 20260506060925 | 75 | 144 | 4.3 | 6.1 | 0.00 | 0.00 | 0.00 | 94 | 1009.2 |
| 20260506060422 | 75 | 219 | 1.7 | 2.6 | 0.00 | 0.00 | 0.00 | 94 | 1009.2 |
| 20260506051354 | 76 | 198 | 2.6 | 4.3 | 0.00 | 0.00 | 0.00 | 94 | 1009.1 |
| 20260506050851 | 76 | 214 | 1.7 | 4.3 | 0.00 | 0.00 | 0.00 | 94 | 1009.1 |
| 20260506050349 | 76 | 170 | 1.7 | 2.6 | 0.00 | 0.00 | 0.00 | 93 | 1009.3 |
| 20260506044839 | 76 | 177 | 0.0 | 1.7 | 0.00 | 0.00 | 0.00 | 94 | 1009.4 |
| 20260506044337 | 76 | 182 | 4.3 | 6.1 | 0.00 | 0.00 | 0.00 | 94 | 1009.1 |
| 20260506043834 | 76 | 202 | 2.6 | 4.3 | 0.00 | 0.00 | 0.00 | 94 | 1009.0 |
| 20260506043331 | 76 | 170 | 2.6 | 4.3 | 0.00 | 0.00 | 0.00 | 93 | 1009.1 |
| 20260506042829 | 76 | 120 | 2.6 | 4.3 | 0.00 | 0.00 | 0.00 | 93 | 1009.0 |
| 20260506042328 | 76 | 169 | 0.9 | 1.7 | 0.00 | 0.00 | 0.00 | 92 | 1009.2 |
| 20260506041827 | 77 | 128 | 3.5 | 4.3 | 0.00 | 0.00 | 0.00 | 92 | 1009.1 |
| 20260506041323 | 76 | 159 | 4.3 | 6.1 | 0.00 | 0.00 | 0.00 | 92 | 1008.8 |
| 20260506040820 | 76 | 149 | 0.0 | 1.7 | 0.00 | 0.00 | 0.00 | 92 | 1008.9 |
| 20260506040318 | 76 | 193 | 1.7 | 2.6 | 0.00 | 0.00 | 0.00 | 92 | 1008.5 |
| 20260506035814 | 76 | 138 | 3.5 | 4.3 | 0.00 | 0.00 | 0.00 | 92 | 1008.9 |
| 20260506035311 | 77 | 139 | 0.0 | 0.0 | 0.00 | 0.00 | 0.00 | 91 | 1008.6 |
| 20260506034809 | 77 | 206 | 3.5 | 4.3 | 0.00 | 0.00 | 0.00 | 91 | 1008.4 |
| 20260506034306 | 77 | 143 | 2.6 | 2.6 | 0.00 | 0.00 | 0.00 | 90 | 1008.5 |
| 20260506033802 | 77 | 213 | 2.6 | 2.6 | 0.00 | 0.00 | 0.00 | 91 | 1008.6 |
| 20260506033259 | 77 | 152 | 3.5 | 6.1 | 0.00 | 0.00 | 0.00 | 91 | 1008.4 |
| 20260506032756 | 77 | 165 | 0.9 | 1.7 | 0.00 | 0.00 | 0.00 | 91 | 1008.5 |
| 20260506032253 | 77 | 146 | 0.0 | 0.0 | 0.00 | 0.00 | 0.00 | 90 | 1008.5 |
| 20260506031750 | 77 | 184 | 1.7 | 2.6 | 0.00 | 0.00 | 0.00 | 90 | 1008.1 |
| 20260506031247 | 78 | 184 | 0.9 | 1.7 | 0.00 | 0.00 | 0.00 | 89 | 1008.2 |
| 20260506030745 | 78 | 176 | 0.9 | 1.7 | 0.00 | 0.00 | 0.00 | 88 | 1008.5 |
| 20260506030243 | 78 | 173 | 2.6 | 4.3 | 0.00 | 0.00 | 0.00 | 87 | 1008.3 |
| 20260506025739 | 78 | 177 | 0.9 | 2.6 | 0.00 | 0.00 | 0.00 | 87 | 1008.4 |
| 20260506025236 | 78 | 40 | 2.6 | 2.6 | 0.00 | 0.00 | 0.00 | 87 | 1008.0 |
| 20260506024732 | 78 | 190 | 0.9 | 1.7 | 0.00 | 0.00 | 0.00 | 86 | 1008.1 |
| 20260506024229 | 78 | 138 | 0.0 | 1.7 | 0.00 | 0.00 | 0.00 | 86 | 1008.0 |
| 20260506023720 | 79 | 174 | 1.7 | 1.7 | 0.00 | 0.00 | 0.00 | 85 | 1007.8 |
| 20260506023217 | 79 | 186 | 0.9 | 1.7 | 0.00 | 0.00 | 0.00 | 85 | 1007.7 |
| 20260506022714 | 79 | 147 | 0.0 | 1.7 | 0.00 | 0.00 | 0.00 | 85 | 1007.6 |
| 20260506022212 | 78 | 184 | 0.9 | 1.7 | 0.00 | 0.00 | 0.00 | 86 | 1007.4 |
| 20260506021709 | 79 | 164 | 0.0 | 0.0 | 0.00 | 0.00 | 0.00 | 85 | 1007.5 |
| 20260506021206 | 79 | 166 | 0.0 | 0.0 | 0.00 | 0.00 | 0.00 | 85 | 1007.4 |
| 20260506020703 | 79 | 113 | 1.7 | 2.6 | 0.00 | 0.00 | 0.00 | 84 | 1007.4 |
| 20260506020201 | 79 | 161 | 0.0 | 0.0 | 0.00 | 0.00 | 0.00 | 84 | 1007.1 |
| 20260506015658 | 79 | 141 | 0.0 | 0.0 | 0.00 | 0.00 | 0.00 | 84 | 1007.2 |
| 20260506015155 | 79 | 162 | 0.0 | 0.0 | 0.00 | 0.00 | 0.00 | 84 | 1007.1 |
| 20260506014653 | 80 | 137 | 0.0 | 1.7 | 0.00 | 0.00 | 0.00 | 83 | 1006.9 |
| 20260506014148 | 80 | 221 | 0.9 | 2.6 | 0.00 | 0.00 | 0.00 | 83 | 1007.0 |
| 20260506013646 | 80 | 203 | 0.0 | 1.7 | 0.00 | 0.00 | 0.00 | 83 | 1006.8 |
| 20260506013143 | 80 | 162 | 0.0 | 1.7 | 0.00 | 0.00 | 0.00 | 82 | 1006.9 |
| 20260506012639 | 80 | 191 | 2.6 | 2.6 | 0.00 | 0.00 | 0.00 | 83 | 1007.0 |
| 20260506012136 | 80 | 148 | 0.0 | 0.0 | 0.00 | 0.00 | 0.00 | 82 | 1006.9 |
| 20260506011634 | 80 | 207 | 0.0 | 0.0 | 0.00 | 0.00 | 0.00 | 82 | 1007.0 |
| 20260506011130 | 81 | 140 | 0.0 | 0.0 | 0.00 | 0.00 | 0.00 | 81 | 1006.8 |
| 20260506010629 | 81 | 164 | 0.9 | 1.7 | 0.00 | 0.00 | 0.00 | 81 | 1006.8 |
| 20260506010125 | 81 | 136 | 0.0 | 0.0 | 0.00 | 0.00 | 0.00 | 80 | 1006.8 |
| 20260506005622 | 81 | 187 | 0.0 | 0.0 | 0.00 | 0.00 | 0.00 | 80 | 1006.9 |
| 20260506005118 | 81 | 174 | 0.0 | 1.7 | 0.00 | 0.00 | 0.00 | 79 | 1007.0 |
| 20260506004615 | 82 | 135 | 1.7 | 2.6 | 0.00 | 0.00 | 0.00 | 79 | 1006.8 |
| 20260506004112 | 82 | 109 | 0.9 | 2.6 | 0.00 | 0.00 | 0.00 | 78 | 1006.8 |
| 20260506003609 | 82 | 188 | 0.0 | 1.7 | 0.00 | 0.00 | 0.00 | 78 | 1006.9 |
| 20260506003105 | 82 | 230 | 2.6 | 4.3 | 0.00 | 0.00 | 0.00 | 78 | 1006.9 |
| 20260506002601 | 82 | 111 | 1.7 | 2.6 | 0.00 | 0.00 | 0.00 | 77 | 1007.0 |
| 20260506002057 | 82 | 140 | 0.0 | 1.7 | 0.00 | 0.00 | 0.00 | 77 | 1007.1 |
| 20260506001553 | 82 | 166 | 1.7 | 2.6 | 0.00 | 0.00 | 0.00 | 77 | 1007.1 |
| 20260506001050 | 82 | 139 | 0.0 | 0.0 | 0.00 | 0.00 | 0.00 | 77 | 1007.0 |
| 20260506000548 | 82 | 146 | 0.0 | 1.7 | 0.00 | 0.00 | 0.00 | 77 | 1007.0 |
| 20260506000045 | 82 | 191 | 0.0 | 1.7 | 0.00 | 0.00 | 0.00 | 76 | 1006.9 |
| 20260505235543 | 82 | 290 | 1.7 | 2.6 | 0.00 | 0.00 | 0.00 | 76 | 1006.8 |
| 20260505235040 | 82 | 119 | 4.3 | 4.3 | 0.00 | 0.00 | 0.00 | 76 | 1006.8 |
| 20260505234537 | 83 | 190 | 4.3 | 6.1 | 0.00 | 0.00 | 0.00 | 76 | 1006.5 |
| 20260505234033 | 83 | 224 | 4.3 | 6.1 | 0.00 | 0.00 | 0.00 | 75 | 1006.6 |
| 20260505233531 | 83 | 180 | 2.6 | 4.3 | 0.00 | 0.00 | 0.00 | 75 | 1006.8 |
| 20260505233028 | 83 | 157 | 0.9 | 1.7 | 0.00 | 0.00 | 0.00 | 74 | 1006.8 |
| 20260505232526 | 83 | 148 | 2.6 | 2.6 | 0.00 | 0.00 | 0.00 | 74 | 1006.4 |
| 20260505232023 | 83 | 200 | 4.3 | 6.1 | 0.00 | 0.00 | 0.00 | 74 | 1006.4 |
| 20260505231520 | 84 | 34 | 2.6 | 4.3 | 0.00 | 0.00 | 0.00 | 74 | 1006.2 |
| 20260505231019 | 84 | 173 | 1.7 | 2.6 | 0.00 | 0.00 | 0.00 | 74 | 1006.4 |
| 20260505230516 | 83 | 161 | 1.7 | 2.6 | 0.00 | 0.00 | 0.00 | 74 | 1006.4 |
| 20260505230012 | 84 | 141 | 4.3 | 7.8 | 0.00 | 0.00 | 0.00 | 73 | 1006.3 |
| 20260505225509 | 84 | 17 | 2.6 | 6.1 | 0.00 | 0.00 | 0.00 | 73 | 1006.2 |
| 20260505225005 | 84 | 229 | 5.2 | 6.1 | 0.00 | 0.00 | 0.00 | 73 | 1006.0 |
| 20260505224502 | 84 | 240 | 2.6 | 4.3 | 0.00 | 0.00 | 0.00 | 72 | 1006.2 |
| 20260505223959 | 84 | 185 | 1.7 | 1.7 | 0.00 | 0.00 | 0.00 | 72 | 1006.4 |
| 20260505223456 | 85 | 157 | 3.5 | 4.3 | 0.00 | 0.00 | 0.00 | 71 | 1006.3 |
| 20260505222953 | 84 | 300 | 2.6 | 2.6 | 0.00 | 0.00 | 0.00 | 72 | 1006.3 |
| 20260505222449 | 85 | 229 | 4.3 | 6.1 | 0.00 | 0.00 | 0.00 | 72 | 1006.3 |
| 20260505221944 | 85 | 230 | 2.6 | 4.3 | 0.00 | 0.00 | 0.00 | 71 | 1006.2 |
| 20260505221442 | 85 | 188 | 1.7 | 2.6 | 0.00 | 0.00 | 0.00 | 71 | 1006.2 |
| 20260505220939 | 85 | 231 | 2.6 | 4.3 | 0.00 | 0.00 | 0.00 | 71 | 1006.3 |
| 20260505220436 | 85 | 150 | 4.3 | 8.7 | 0.00 | 0.00 | 0.00 | 71 | 1006.3 |
| 20260505215934 | 85 | 160 | 1.7 | 2.6 | 0.00 | 0.00 | 0.00 | 70 | 1006.3 |
| 20260505215432 | 86 | 192 | 2.6 | 2.6 | 0.00 | 0.00 | 0.00 | 70 | 1006.6 |
| 20260505214929 | 86 | 169 | 0.9 | 1.7 | 0.00 | 0.00 | 0.00 | 71 | 1006.4 |
| 20260505214427 | 85 | 164 | 2.6 | 2.6 | 0.00 | 0.00 | 0.00 | 72 | 1006.4 |
| 20260505213924 | 86 | 125 | 2.6 | 6.1 | 0.00 | 0.00 | 0.00 | 71 | 1006.8 |
| 20260505213422 | 86 | 285 | 1.7 | 4.3 | 0.00 | 0.00 | 0.00 | 71 | 1007.0 |
| 20260505212917 | 86 | 179 | 1.7 | 2.6 | 0.00 | 0.00 | 0.00 | 70 | 1007.0 |
| 20260505212415 | 86 | 167 | 3.5 | 4.3 | 0.00 | 0.00 | 0.00 | 70 | 1006.8 |
| 20260505211911 | 86 | 205 | 1.7 | 4.3 | 0.00 | 0.00 | 0.00 | 71 | 1006.9 |
| 20260505211409 | 86 | 192 | 0.9 | 2.6 | 0.00 | 0.00 | 0.00 | 71 | 1007.1 |
| 20260505210905 | 86 | 175 | 2.6 | 7.8 | 0.00 | 0.00 | 0.00 | 72 | 1007.1 |
| 20260505210402 | 86 | 216 | 3.5 | 4.3 | 0.00 | 0.00 | 0.00 | 71 | 1007.1 |
| 20260505205859 | 85 | 153 | 1.7 | 2.6 | 0.00 | 0.00 | 0.00 | 71 | 1007.0 |
| 20260505205357 | 85 | 113 | 4.3 | 4.3 | 0.00 | 0.00 | 0.00 | 72 | 1007.2 |